TimeMST,TemperatureF,Dew PointF,Humidity,Sea Level PressureIn,VisibilityMPH,Wind Direction,Wind SpeedMPH,Gust SpeedMPH,PrecipitationIn,Events,Conditions,WindDirDegrees,DateUTC
12:15 AM,23.0,19.4,86,29.82,2.0,Calm,Calm,-,0.00,Snow,Light Snow,0,2012-12-31 07:15:00
12:22 AM,23.0,19.4,86,29.82,2.0,Calm,Calm,-,0.00,Snow,Light Snow,0,2012-12-31 07:22:00
12:37 AM,21.2,19.4,93,29.82,3.0,Calm,Calm,-,0.00,Snow,Light Snow,0,2012-12-31 07:37:00
12:54 AM,21.9,19.0,89,29.83,8.0,Calm,Calm,-,0.00,,Overcast,0,2012-12-31 07:54:00
1:03 AM,21.2,17.6,86,29.82,10.0,Calm,Calm,-,N/A,,Overcast,0,2012-12-31 08:03:00
1:12 AM,21.2,17.6,86,29.82,10.0,SW,4.6,-,N/A,,Overcast,220,2012-12-31 08:12:00
1:35 AM,21.2,19.4,93,29.82,10.0,Calm,Calm,-,N/A,,Overcast,0,2012-12-31 08:35:00
1:54 AM,21.9,19.9,92,29.84,10.0,Calm,Calm,-,N/A,,Overcast,0,2012-12-31 08:54:00
2:41 AM,23.0,19.4,86,29.84,9.0,Calm,Calm,-,N/A,,Overcast,0,2012-12-31 09:41:00
2:54 AM,23.0,19.0,85,29.86,7.0,Calm,Calm,-,N/A,,Overcast,0,2012-12-31 09:54:00
3:54 AM,21.9,19.0,89,29.87,9.0,West,4.6,-,0.00,,Overcast,280,2012-12-31 10:54:00
4:54 AM,21.0,18.0,88,29.90,9.0,WSW,3.5,-,N/A,,Overcast,240,2012-12-31 11:54:00
5:21 AM,21.2,19.4,93,29.86,2.5,WSW,4.6,-,0.00,Snow,Light Snow,250,2012-12-31 12:21:00
5:32 AM,21.2,19.4,93,29.86,3.0,SW,4.6,-,0.00,Snow,Light Snow,230,2012-12-31 12:32:00
5:54 AM,21.0,19.0,92,29.93,8.0,Calm,Calm,-,0.00,Snow,Light Snow,0,2012-12-31 12:54:00
6:54 AM,21.0,18.0,88,29.97,6.0,West,3.5,-,0.00,Snow,Light Snow,280,2012-12-31 13:54:00
7:54 AM,19.9,18.0,92,29.99,10.0,West,3.5,-,0.00,,Overcast,270,2012-12-31 14:54:00
8:54 AM,21.0,17.1,85,30.01,10.0,West,4.6,-,N/A,,Overcast,260,2012-12-31 15:54:00
9:54 AM,21.0,17.1,85,30.05,10.0,NNW,3.5,-,N/A,,Overcast,340,2012-12-31 16:54:00
10:54 AM,23.0,16.0,74,30.06,10.0,West,5.8,-,N/A,,Overcast,270,2012-12-31 17:54:00
11:54 AM,21.9,17.1,82,30.06,10.0,Variable,5.8,-,N/A,,Overcast,0,2012-12-31 18:54:00
12:54 PM,23.0,16.0,74,30.05,10.0,West,4.6,-,N/A,,Overcast,260,2012-12-31 19:54:00
1:54 PM,25.0,16.0,69,30.03,10.0,West,11.5,16.1,N/A,,Mostly Cloudy,260,2012-12-31 20:54:00
2:54 PM,26.1,12.0,55,30.04,10.0,WNW,8.1,-,N/A,,Partly Cloudy,290,2012-12-31 21:54:00
3:54 PM,25.0,12.0,58,30.06,10.0,WNW,5.8,-,N/A,,Clear,300,2012-12-31 22:54:00
6:54 PM,12.9,8.1,81,30.17,10.0,Calm,Calm,-,N/A,,Mostly Cloudy,0,2013-01-01 01:54:00
7:40 PM,8.6,3.2,79,30.05,10.0,Calm,Calm,-,N/A,,Overcast,0,2013-01-01 02:40:00
7:54 PM,12.0,8.1,84,30.19,10.0,Calm,Calm,-,N/A,,Mostly Cloudy,0,2013-01-01 02:54:00
8:07 PM,14.0,8.6,79,30.06,10.0,Calm,Calm,-,N/A,,Scattered Clouds,0,2013-01-01 03:07:00
8:54 PM,10.9,7.0,84,30.20,10.0,Calm,Calm,-,N/A,,Scattered Clouds,0,2013-01-01 03:54:00
9:16 PM,10.4,6.8,85,30.07,10.0,Calm,Calm,-,N/A,,Mostly Cloudy,0,2013-01-01 04:16:00
9:34 PM,15.8,8.6,73,30.08,10.0,West,4.6,-,N/A,,Scattered Clouds,280,2013-01-01 04:34:00
9:54 PM,8.1,3.9,83,30.23,10.0,Calm,Calm,-,N/A,,Clear,0,2013-01-01 04:54:00
10:54 PM,1.9,-2.9,80,30.27,10.0,Calm,Calm,-,N/A,,Clear,0,2013-01-01 05:54:00
11:54 PM,-8.0,-11.0,86,30.34,10.0,ENE,3.5,-,N/A,,Clear,60,2013-01-01 06:54:00